轨道通信卫星FM108星 (ORBCOMM FM108)

导读 | 星芒AI

ORBCOMM FM108 是一颗由 ORBCOMM 公司运营的低轨卫星,主要用于物联网(IoT)和机器对机器(M2M)通信。该卫星运行在约 780 公里的近地轨道,支持全球范围内的远程数据传输,适用于物流、运输、资产追踪和环境监测等领域。FM108 是 ORBCOMM 通信网络的一部分,提供低带宽、低功耗的卫星连接,帮助用户在无蜂窝网络覆盖的地区实现设备监控与数据回传。

基本信息
目录编号:
41187
目录名称:
ORBCOMM FM 108
国际标识:
2015-081J
轨道中心:
EARTH
卫星名称:
轨道通信卫星FM108星
卫星全名:
轨道通信卫星FM108星 (ORBCOMM FM108)
卫星状态:
在轨 (已飞行3646 天)
发射日期:
2015-12-22 UTC
国别 :
(ORB)
星等 :
--
轨道信息
数据来源 国际轨道数据
星历时间: 2025-12-15T07:21:31+0800
19小时前
查看轨道信息
半长轴: 7075.967km
偏心率: 0.0001834
轨道倾角: 47.006°
近地点辐角 45.688°
升交点赤经 332.964°
平近点角 314.415°
近地点: 696.534km
远地点: 699.13km
周期: 98.728分钟
每日圈数: 14.585593
详细信息
固有亮度:
8
最大亮度:
6.7
平衡模式:
三轴稳定
覆盖范围:
全球
运营商:
轨道通信公司
运营商所在国:
美国
使用方式:
暂无
卫星简介
轨道通信FM(Orbcomm FM)是一系列低地球轨道通信卫星,由美国卫星通信公司 Orbcomm运营。 截至2015年12月,已有63颗此类卫星绕地球运行。该卫星仍在工作。
2D轨道图
3D轨道图
轨道高度分析图
轨道倾角分析图
轨道综合分析图
查看轨道综合分析图